[[{"header":{"parameterUnit":"m.s-1","parameterCategory":1,"la1":30.2991,"la2":30.254,"lo1":-89.0895,"lo2":-89.0444,"dy":0.0017,"dx":0.0017,"nx":28,"ny":28,"refTime":"2024-12-14T09:00:00:Z","depth":0,"parameterNumber":2,"parameterNumberName":"U-component_of_WINDS"},"data":[0,0,0,0,0,0,0,0,0,0,0,0,0,0,0,0,0,0,0,0,0,0,0,0,0,0,0,0,0,0,0,0,0,0,0,0,0,0,0,0,0,0,0,0,0,0,0,0,0,0,0,0,0,0,0,0,0,0,-4.8959,-4.8959,0,-4.8947,-4.8947,-4.8947,-4.8841,-4.8839,-4.8836,-4.8833,-4.8822,-4.8824,-4.8826,0,0,0,0,0,0,0,0,0,0,0,0,0,-4.8895,-4.8896,-4.8959,-4.8959,-4.8959,-4.8947,-4.8947,-4.8947,-4.8842,-4.8838,-4.8835,-4.8832,-4.8822,-4.8824,-4.8827,0,0,0,0,0,0,0,0,0,0,0,0,0,-4.8907,-4.8897,-4.8959,-4.8905,-4.89,-4.8947,-4.8947,-4.8947,-4.8842,-4.8838,-4.8834,-4.8831,-4.8821,-4.8824,-4.8827,-4.8926,0,0,-4.8837,-4.8838,0,0,0,0,0,0,0,0,-4.8906,-4.8909,-4.8913,-4.8909,-4.8903,-4.8892,-4.892,-4.894,-4.8843,-4.8864,-4.8833,-4.8829,-4.8849,-4.8849,-4.8856,-4.8925,-4.8925,-4.8837,-4.8839,-4.884,-4.8841,0,0,0,0,0,0,0,-4.8906,-4.8909,-4.8954,-4.8913,-4.8907,-4.8882,-4.888,-4.8923,-4.8879,-4.8862,-4.8854,-4.8854,-4.8845,-4.8853,-4.8855,-4.8924,-4.8837,-4.884,-4.8842,-4.8843,-4.9078,-4.9082,0,0,0,0,0,0,-4.8912,-4.8909,-4.8955,-4.8954,-4.8895,-4.8887,-4.8884,-4.8899,-4.8878,-4.8871,-4.8858,-4.885,-4.8849,-4.8851,-4.8854,-4.8969,-4.884,-4.8843,-4.8845,-4.9073,-4.9078,-4.9083,0,0,0,0,0,0,-4.8911,-4.8917,-4.8955,-4.893,-4.8932,-4.8892,-4.891,-4.8901,-4.8908,-4.8875,-4.8866,-4.8873,-4.8846,-4.8849,-4.8909,-4.8967,-4.8845,-4.8848,-4.9068,-4.9075,-4.9081,-4.92,0,0,0,0,0,0,-4.891,-4.8917,-4.8953,-4.8931,-4.8934,-4.901,-4.8914,-4.8904,-4.8914,-4.8903,-4.8887,-4.8881,-4.8843,-4.8905,-4.8912,-4.8969,-4.885,-4.9063,-4.9071,-4.9079,-4.919,-4.9209,-4.9226,0,0,0,0,0,-4.8908,-4.8986,-4.8955,-4.8961,-4.8978,-4.9013,-4.9015,-4.897,-4.8919,-4.8956,-4.8935,-4.8881,-4.896,-4.8912,-4.8919,-4.8978,-4.9059,-4.9069,-4.9078,-4.9182,-4.9206,-4.9225,0,0,0,0,0,0,-4.9015,-4.8982,-4.8947,-4.9021,-4.9021,-4.8995,-4.9039,-4.8996,-4.901,-4.8999,-4.8943,-4.8941,-4.901,-4.9,-4.8947,-4.9074,-4.9001,-4.9012,-4.9077,-4.9099,-4.9116,-4.9117,-4.8853,0,0,0,0,0,-4.9048,-4.9078,-4.9048,-4.9116,-4.9118,-4.908,-4.9093,-4.9059,-4.9056,-4.9056,-4.9038,-4.9039,-4.9064,-4.9081,-4.9102,-4.919,-4.9185,-4.9234,-4.9252,-4.9267,-4.9277,-4.9325,-4.9346,-4.9115,-4.9115,-4.9115,0,0,-4.9114,-4.91,-4.9123,-4.9138,-4.9133,-4.9168,-4.908,-4.9119,-4.9144,-4.9061,-4.9117,-4.9106,-4.9102,-4.9177,-4.9209,-4.9171,-4.9341,-4.9279,-4.9291,-4.9293,-4.9337,-4.9359,-4.9378,-4.9121,-4.912,-4.9119,0,0,-4.9253,-4.9246,-4.9303,-4.9301,-4.9296,-4.9271,-4.9285,-4.9267,-4.9256,-4.9311,-4.9251,-4.9282,-4.9325,-4.9326,-4.9332,-4.9478,-4.943,-4.9487,-4.9578,-4.9625,-4.9644,-4.9659,-4.9712,-4.9732,-4.9497,-4.9498,-4.9498,0,-4.9337,-4.9385,-4.9337,-4.9381,-4.9391,-4.932,-4.9378,-4.9379,-4.9382,-4.939,-4.9348,-4.9404,-4.9397,-4.9472,-4.9508,-4.9515,-4.9531,-4.9487,-4.9645,-4.966,-4.9674,-4.9724,-4.9744,-4.9504,-4.9504,-4.9503,-4.9502,0,-4.9489,-4.9524,-4.9571,-4.9576,-4.9591,-4.9642,-4.9604,-4.9625,-4.9592,-4.9572,-4.963,-4.962,-4.9639,-4.9655,-4.9621,-4.9726,-4.9703,-4.9654,-4.9579,-4.9704,-4.975,-4.9768,-4.9514,-4.9512,-4.951,-4.9508,0,0,-4.969,-4.9672,-4.969,-4.9693,-4.9685,-4.9712,-4.9762,-4.9781,-4.9801,-4.9807,-4.9847,-4.9889,-4.9844,-4.9852,-4.9819,-4.9861,-4.9978,-4.9806,-4.9806,-4.9839,-5.0095,-5.0131,-5.0154,-4.9948,-4.9951,-4.9954,-5.0095,0,-4.9824,-4.9906,-4.9868,-4.9955,-4.9988,-4.9924,-4.9967,-4.9969,-4.9952,-4.9979,-4.9961,-4.9992,-4.993,-4.9935,-4.9974,-4.9956,-5.0029,-4.9945,-4.9986,-4.9988,-4.9987,-5.0178,-5.0215,-5.0349,-5.0113,-5.0116,-5.0118,0,-4.999,-5.0004,-5.0095,-5.0085,-5.0097,-5.0137,-5.0153,-5.0179,-5.018,-5.0166,-5.0177,-5.0136,-5.0186,-5.0113,-5.0182,-5.0126,-5.0141,-5.0136,-5.014,-5.0141,-5.0059,-5.0183,-5.039,-5.041,-5.0146,-5.0143,-5.0141,0,-5.0128,-5.017,-5.0231,-5.0236,-5.0225,-5.0255,-5.0252,-5.0249,-5.0264,-5.0279,-5.0289,-5.031,-5.0321,-5.0339,-5.0306,-5.0256,-5.038,-5.0304,-5.037,-5.0371,-5.0397,-5.0396,-5.0609,-5.0409,-5.0409,-5.0408,-5.0408,0,-5.0281,-5.0339,-5.0293,-5.033,-5.0395,-5.0352,-5.0418,-5.0408,-5.0407,-5.0442,-5.0389,-5.0423,-5.0378,-5.0409,-5.0383,-5.0445,-5.0451,-5.0441,-5.0433,-5.0445,-5.0447,-5.0453,-5.0442,-5.0414,-5.0413,-5.0412,-5.0411,0,-5.0444,-5.0416,-5.0478,-5.0464,-5.0463,-5.0511,-5.0499,-5.0534,-5.0517,-5.0562,-5.0571,-5.0543,-5.0577,-5.0546,-5.0578,-5.0561,-5.0644,-5.0623,-5.0643,-5.0637,-5.0705,-5.0699,-5.0929,-5.0958,-5.0741,-5.0743,-5.0744,0,-5.0543,-5.0586,-5.0579,-5.0599,-5.0599,-5.0632,-5.0648,-5.0609,-5.0628,-5.0636,-5.0671,-5.07,-5.0722,-5.078,-5.0763,-5.0788,-5.0767,-5.0846,-5.077,-5.0782,-5.0768,-5.0766,-5.0771,-5.0861,-5.0863,-5.0866,-5.0867,0,-5.072,-5.0706,-5.073,-5.0753,-5.0774,-5.0789,-5.08,-5.082,-5.078,-5.0805,-5.0839,-5.0856,-5.0891,-5.0922,-5.0942,-5.094,-5.0898,-5.0892,-5.0909,-5.092,-5.093,-5.0926,-5.0685,-5.0886,-5.0884,-5.0883,-5.0882,-5.0881,-5.0854,-5.0891,-5.0892,-5.0923,-5.0928,-5.0941,-5.0974,-5.0961,-5.0989,-5.1014,-5.0991,-5.1033,-5.1037,-5.1061,-5.1065,-5.1098,-5.1065,-5.1089,-5.1095,-5.1101,-5.1112,-5.0927,-5.1102,-5.1101,-5.1101,-5.11,-5.11,0,-5.1029,-5.1028,-5.1057,-5.1075,-5.1101,-5.106,-5.1072,-5.1096,-5.1134,-5.1141,-5.1165,-5.1206,-5.1237,-5.1225,-5.1252,-5.1282,-5.1263,-5.129,-5.1287,-5.1288,-5.1139,-5.1122,-5.1305,-5.1305,-5.1305,-5.1305,-5.1305,-5.1305,-5.1122,-5.1184,-5.117,-5.1235,-5.1233,-5.1275,-5.1285,-5.1297,-5.1303,-5.1352,-5.1378,-5.137,-5.1371,-5.1398,-5.1426,-5.1422,-5.1434,-5.1468,-5.1457,-5.1318,-5.1298,-5.1278,-5.1262,-5.1472,-5.1472,-5.1603,-5.1604,-5.1605]},{"header":{"parameterUnit":"m.s-1","parameterCategory":1,"la1":30.2991,"la2":30.254,"lo1":-89.0895,"lo2":-89.0444,"dy":0.0017,"dx":0.0017,"nx":28,"ny":28,"refTime":"2024-12-14T09:00:00:Z","depth":0,"parameterNumber":3,"parameterNumberName":"V-component_of_WINDS"},"data":[0,0,0,0,0,0,0,0,0,0,0,0,0,0,0,0,0,0,0,0,0,0,0,0,0,0,0,0,0,0,0,0,0,0,0,0,0,0,0,0,0,0,0,0,0,0,0,0,0,0,0,0,0,0,0,0,0,0,0.4956,0.4956,0,0.4956,0.4956,0.4956,0.4982,0.4983,0.4984,0.4984,0.498,0.498,0.4979,0,0,0,0,0,0,0,0,0,0,0,0,0,0.4977,0.4976,0.4956,0.4956,0.4956,0.4956,0.4956,0.4956,0.4982,0.4983,0.4984,0.4985,0.4981,0.498,0.4979,0,0,0,0,0,0,0,0,0,0,0,0,0,0.4971,0.4976,0.4956,0.4969,0.497,0.4956,0.4956,0.4956,0.4982,0.4983,0.4984,0.4985,0.4981,0.498,0.4979,0.495,0,0,0.4975,0.4975,0,0,0,0,0,0,0,0,0.4971,0.497,0.4967,0.4968,0.4969,0.497,0.4962,0.4954,0.4982,0.4977,0.4984,0.4986,0.4976,0.4975,0.4973,0.495,0.495,0.4975,0.4974,0.4974,0.4974,0,0,0,0,0,0,0,0.4972,0.497,0.4955,0.4967,0.4968,0.4974,0.4975,0.496,0.497,0.4978,0.498,0.498,0.4977,0.4974,0.4973,0.495,0.4975,0.4974,0.4973,0.4973,0.4906,0.4905,0,0,0,0,0,0,0.4971,0.497,0.4955,0.4955,0.4973,0.4973,0.4974,0.4969,0.4971,0.4972,0.4979,0.4981,0.4975,0.4974,0.4973,0.4941,0.4974,0.4973,0.4972,0.4907,0.4906,0.4905,0,0,0,0,0,0,0.4971,0.4969,0.4955,0.4964,0.4962,0.4972,0.4966,0.4968,0.4965,0.4971,0.4973,0.4974,0.4976,0.4974,0.4957,0.4941,0.4972,0.4971,0.4909,0.4907,0.4906,0.4876,0,0,0,0,0,0,0.4971,0.4969,0.4958,0.4963,0.4962,0.4939,0.4965,0.4967,0.4964,0.4967,0.4967,0.4969,0.4977,0.4958,0.4955,0.494,0.497,0.491,0.4908,0.4906,0.4879,0.4874,0.487,0,0,0,0,0,0.4972,0.4949,0.4958,0.4956,0.4949,0.4938,0.4938,0.4949,0.4962,0.4952,0.4956,0.4969,0.4944,0.4956,0.4953,0.4937,0.4911,0.4909,0.4906,0.4881,0.4875,0.487,0,0,0,0,0,0,0.4939,0.4949,0.4959,0.4937,0.4937,0.4943,0.493,0.4942,0.4936,0.4939,0.4952,0.4952,0.4932,0.4933,0.4947,0.4911,0.493,0.4927,0.4911,0.4906,0.4901,0.4901,0.4969,0,0,0,0,0,0.493,0.4922,0.493,0.491,0.491,0.492,0.4915,0.4925,0.4924,0.4924,0.4927,0.4925,0.4918,0.4912,0.4905,0.488,0.4881,0.4867,0.4863,0.4859,0.4856,0.4845,0.4839,0.4897,0.4897,0.4897,0,0,0.4909,0.4914,0.4907,0.4903,0.4904,0.4895,0.4919,0.4908,0.4901,0.4922,0.4906,0.4908,0.4907,0.4886,0.4877,0.4886,0.4841,0.4856,0.4853,0.4852,0.4842,0.4836,0.4832,0.4895,0.4896,0.4896,0,0,0.4867,0.487,0.4854,0.4856,0.4858,0.4865,0.4862,0.4867,0.487,0.4855,0.4871,0.4863,0.4848,0.4848,0.4846,0.4808,0.4819,0.4805,0.4781,0.477,0.4766,0.4762,0.4749,0.4744,0.4802,0.4802,0.4802,0,0.4841,0.4829,0.4844,0.4833,0.4831,0.4852,0.4836,0.4836,0.4835,0.4833,0.4844,0.4829,0.483,0.481,0.4801,0.4798,0.4795,0.4804,0.4765,0.4761,0.4758,0.4746,0.4741,0.48,0.48,0.4801,0.4801,0,0.4797,0.4789,0.4775,0.4777,0.4774,0.476,0.4773,0.4768,0.4778,0.4784,0.4769,0.4772,0.4767,0.4763,0.4771,0.4745,0.4751,0.4763,0.4782,0.4751,0.474,0.4735,0.4798,0.4798,0.4799,0.4799,0,0,0.4732,0.4745,0.4739,0.4741,0.4747,0.474,0.4729,0.4726,0.4721,0.4721,0.4711,0.4701,0.4713,0.4711,0.472,0.471,0.4682,0.4724,0.4725,0.4717,0.4654,0.4644,0.4639,0.469,0.4689,0.4689,0.4654,0,0.4692,0.4673,0.4688,0.4666,0.4659,0.4681,0.4671,0.4673,0.468,0.4674,0.4681,0.4674,0.469,0.469,0.4681,0.4687,0.4669,0.469,0.4681,0.468,0.468,0.4633,0.4622,0.4589,0.465,0.4649,0.4649,0,0.4642,0.4642,0.4621,0.4631,0.4628,0.4619,0.4619,0.4614,0.4617,0.4623,0.4622,0.4635,0.4624,0.4643,0.4629,0.4642,0.464,0.4643,0.4642,0.4641,0.4662,0.4631,0.4579,0.4574,0.4642,0.4642,0.4643,0,0.4597,0.4592,0.4579,0.458,0.4591,0.4585,0.4589,0.4594,0.4592,0.4592,0.4591,0.4588,0.4587,0.4585,0.4597,0.461,0.4581,0.4601,0.4585,0.4585,0.4577,0.4577,0.4524,0.4576,0.4576,0.4576,0.4576,0,0.4551,0.4537,0.456,0.4552,0.4538,0.4555,0.454,0.4546,0.4551,0.4545,0.4563,0.4556,0.4572,0.4568,0.4577,0.4564,0.4563,0.4567,0.457,0.4565,0.4565,0.4563,0.4566,0.4575,0.4575,0.4575,0.4576,0,0.4498,0.4513,0.45,0.4514,0.4517,0.4505,0.4516,0.4509,0.4518,0.451,0.4509,0.4523,0.4518,0.4531,0.4527,0.4534,0.4516,0.4522,0.4515,0.4516,0.45,0.4502,0.4444,0.4438,0.4493,0.4493,0.4492,0,0.4467,0.4458,0.4471,0.4469,0.4473,0.4469,0.4468,0.4486,0.4484,0.449,0.4482,0.448,0.4479,0.4471,0.448,0.4478,0.4484,0.4464,0.4484,0.448,0.4484,0.4485,0.4484,0.446,0.4459,0.4458,0.4458,0,0.4411,0.442,0.4419,0.4422,0.4421,0.4423,0.4426,0.4423,0.4442,0.444,0.4437,0.4436,0.4435,0.4432,0.4433,0.4437,0.445,0.4452,0.4448,0.4444,0.444,0.4443,0.4504,0.4453,0.4453,0.4454,0.4454,0.4454,0.4369,0.4362,0.4371,0.437,0.4376,0.4379,0.4374,0.4384,0.4382,0.4384,0.4394,0.4389,0.4396,0.4399,0.4401,0.4398,0.4407,0.4401,0.44,0.4398,0.4396,0.4442,0.4398,0.4398,0.4398,0.4398,0.4398,0,0.4314,0.4322,0.4321,0.4327,0.4327,0.4343,0.4348,0.4346,0.4342,0.4348,0.4348,0.4345,0.4344,0.4354,0.4354,0.4349,0.4356,0.4349,0.4349,0.435,0.4387,0.4391,0.4344,0.4344,0.4344,0.4344,0.4344,0.4344,0.4286,0.4276,0.4286,0.428,0.4288,0.4285,0.4287,0.429,0.4295,0.4292,0.4292,0.43,0.4308,0.4309,0.4309,0.4312,0.4311,0.4302,0.4307,0.4341,0.4347,0.4352,0.4355,0.4302,0.4301,0.427,0.427,0.427]}]]